Regional Weather Roundup
Issued by NWS New Orleans/Baton Rouge, LA

Home | Current Version | Previous Version | Graphics & Text | Print | Product List | Glossary On
Versions: 1 2 3 4 5 6 7 8 9 10 11 12 13 14 15 16 17 18 19 20 21 22 23 24 25 26 27 28 29 30 31 32 33 34 35 36 37 38 39 40 41 42 43 44 45 46 47 48 49 50
647
ASUS44 KLIX 280310
RWRLIX
NEW ORLEANS REGIONAL WEATHER ROUNDUP
NATIONAL WEATHER SERVICE NEW ORLEANS LA
900 PM CST TUE JAN 27 2015

NOTE: "FAIR" INDICATES FEW OR NO CLOUDS BELOW 12,000 FEET WITH NO
      SIGNIFICANT WEATHER AND/OR OBSTRUCTIONS TO VISIBILITY.
      SKY/WX - SKY CONDITION AND SIGNIFICANT WEATHER.
      TMP - AIR TEMPERATURE.     DP    - DEWPOINT TEMPERATURE.
      RH  - RELATIVE HUMIDITY.   PRES  - PRESSURE.
      HI  - HEAT INDEX.          WCI   - WIND CHILL INDEX.

*  THESE STATIONS ARE NOT NWS OR FAA STATIONS AND ARE NOT UNDER
   NWS QUALITY CONTROL.

LAZ038-040-048-061>063-065>067-069-280400-
SOUTHEAST LOUISIANA

CITY           SKY/WX    TMP DP  RH WIND       PRES   REMARKS
N.O. AUDUBON     N/A     55  50  81 MISG        N/A
N.O. INTL ARPT CLEAR     55  43  63 CALM      30.14R
N.O. LAKEFRONT CLEAR     60  44  55 N7        30.14R
N.O. DOWNTOWN*   N/A     63  37  39 SW3       30.15R
SLIDELL        CLEAR     47  43  86 CALM      30.14R
BATON ROUGE    CLEAR     52  38  58 CALM      30.15R
BOOTHVILLE     CLEAR     57  55  93 W6        30.14R
BELLE CHASSE   CLEAR     52  41  66 SW3       30.14R
BOGALUSA*        N/A     46  39  76 CALM      30.16R
GALLIANO*      CLEAR     56  51  81 MISG      30.15S
NEW ROADS*       N/A     52  39  62 CALM      30.15S
GONZALES*        N/A     54  40  60 CALM      30.15R
HAMMOND*       CLEAR     48  41  76 CALM      30.17R
HOUMA*         CLEAR     54  48  81 SW3       30.15R
PORT FOURCHON* CLEAR     59  54  82 W7        30.18S

$$

MSZ070-080>082-280400-
SOUTHERN MISSISSIPPI

CITY           SKY/WX    TMP DP  RH WIND       PRES   REMARKS
MCCOMB         CLEAR     57  34  41 N8        30.16R
GULFPORT       CLEAR     49  41  74 CALM      30.13R
BILOXI         CLEAR     54  43  67 CALM      30.12R
PASCAGOULA     CLEAR     44  42  93 CALM      30.13R

$$

COASTAL OBSERVATIONS
LAKE AND NEARSHORE STATIONS

STATION/POSITION TIME  TEMP    WIND        PRES    WAVE
                       AIR SEA DIR/SP/G            HT/PER
                 (UTC) (F)     (DEG/KT/KT) (MB)    (FT/S)
PASCAGOULA       0300   54     320/  7/  8 1019.4
WAVELAND YACHT   0300   60     310/  4/  4 1019.4
GRAND ISLE       0300   60 64  260/  8/ 10 1021.2
SOUTHWEST PASS   0300   58 47  260/ 12/ 13 1020.8
NEW CANAL        0300   63 54  340/  3/  5 1020.8
SHELL BEACH      0300   59 56  220/  7/  9 1020.4

OFFSHORE STATIONS

STATION/POSITION TIME  TEMP    WIND        PRES    WAVE
                       AIR SEA DIR/SP/G            HT/PER
                 (UTC) (F)     (DEG/KT/KT) (MB)    (FT/S)
64 S DAUPHIN ISL 0151   66 66  280/ 14/ 17 1020.0    3/ 6

$$




USA.gov is the U.S. government's official web portal to all federal, state and local government web resources and services.